Weather Roundup
Issued by NWS

Home | Current Version | Previous Version | Graphics & Text | Print | Product List | Glossary Off
Versions: 1 2 3 4 5 6 7 8 9 10 11 12 13 14 15 16 17 18 19 20 21 22 23 24 25 26 27 28 29 30 31 32 33 34 35 36 37 38 39 40 41 42 43 44 45 46 47 48 49 50

000
NZUS93 KARX 161759
HRRWXR

CURRENT HOURLY OBSERVATIONS ACROSS
MUCH OF THE UPPER MISSISSIPPI VALLEY
NATIONAL WEATHER SERVICE LA CROSSE WI
100 PM CDT WED APR 16 2014


...SOUTHEAST MINNESOTA...


CITY           SKY/WX    TMP DP  RH WIND       PRES   REMARKS
ROCHESTER      FAIR      47  31  53 S18G31    29.86S
ROCHESTER/MAYO FAIR      47  27  45 SE12G30   29.87F
WINONA         FAIR      54  30  40 S13G23    29.93S
AUSTIN         FAIR      48  32  53 S14G21    29.83F
ALBERT LEA     FAIR      48  32  53 SE16G25   29.80F
DODGE CENTER   FAIR      46  30  53 S16G23    29.85F
PRESTON        FAIR      48  32  53 S23G32    29.89S
OWATONNA       FAIR      46  30  53 SE17G25   29.83F
FARIBAULT      FAIR      46  27  46 E12       29.84F
$$

...ELSEWHERE IN MINNESOTA...


CITY           SKY/WX    TMP DP  RH WIND       PRES   REMARKS
MINNEAPOLIS    CLOUDY    35  27  72 E16       29.89F WCI  25
INTNL FALLS    FAIR      33   6  32 NE8       30.18F WCI  26
DULUTH         LGT SNOW  26  22  84 E20G33    30.10F VSB 3/4 WCI  12
RED WING       FAIR      45  23  42 E14G21    29.90F
REDWOOD FALLS  LGT SNOW  33  32  96 VRB6      29.82R VSB 3/4 WCI  28
MANKATO        CLOUDY    45  30  57 SE13      29.81S
WORTHINGTON    PTSUNNY   46  28  49 S14       29.69F
FAIRMONT       PTSUNNY   52  30  43 S25G33    29.74F
$$

...SOUTHWEST WISCONSIN...


CITY           SKY/WX    TMP DP  RH WIND       PRES   REMARKS
LA CROSSE      FAIR      54  28  36 S17G25    29.95F
PRAIRIE DU CHI FAIR      51  26  37 S23G30    29.99F
BOSCOBEL         N/A     52  27  38 SE12G23   30.02F
LONE ROCK      NOT AVBL
PLATTEVILLE    FAIR      49  31  50 SE30G36   30.07F
FORT MC COY    FAIR      48  25  40 SE20G26   30.01F
VIROQUA        FAIR      47  30  51 S16G26    29.98F
WIS DELLS      FAIR      45  26  48 S20G28    30.08F
$$

...ELSEWHERE IN WISCONSIN...


CITY           SKY/WX    TMP DP  RH WIND       PRES   REMARKS
MILWAUKEE      PTSUNNY   43  29  57 SE22G28   30.25F
MADISON        PTSUNNY   47  26  44 S26G38    30.13F
GREEN BAY      CLOUDY    37  28  70 SE23      30.24F WCI  26
EAU CLAIRE     CLOUDY    39  28  64 E16       29.97F WCI  30
BLACK RVR FLS  FAIR      48  24  39 SE14G25   29.98F
MEDFORD        CLOUDY    30  26  83 E12G22    30.05F WCI  21
WAUSAU         CLOUDY    32  27  81 E20       30.10F WCI  20
WIS RAPIDS     FAIR      40  26  57 SE15G28   30.09F WCI  32
MARSHFIELD     PTSUNNY   35  27  72 SE21G29   30.04F WCI  24
RICE LAKE      CLOUDY    31  26  82 E17G28    30.03S WCI  19
$$

...NORTHEAST IOWA...


CITY           SKY/WX    TMP DP  RH WIND       PRES   REMARKS
WATERLOO       FAIR      55  31  39 S25G37    29.88F
DUBUQUE        FAIR      50  29  44 S31G39    30.02F
DECORAH        FAIR      50  32  50 SE18G28   29.91F
MASON CITY     FAIR      57  33  40 S20G36    29.81F
CHARLES CITY   CLOUDY    50  32  50 S24G38    29.87S
OELWEIN        FAIR     N/A N/A N/A S32G39    29.93F
$$

...ELSEWHERE IN IOWA...


CITY           SKY/WX    TMP DP  RH WIND       PRES   REMARKS
DES MOINES     CLOUDY    63  30  28 S32G40    29.83F
IOWA CITY      FAIR      55  33  43 SE29G37   30.01F
FORT DODGE     FAIR      55  34  44 S22G30    29.78F
MARSHALLTOWN   FAIR      57  32  38 S26G36    29.86F
CEDAR RAPIDS   FAIR      56  31  38 SE23G37   29.96F
$$

...NORTHERN ILLINOIS...


CITY           SKY/WX    TMP DP  RH WIND       PRES   REMARKS
CHICAGO-OHARE  CLOUDY    48  25  40 S21G30    30.23F
DUPAGE         MOSUNNY   49  27  42 S22G28    30.22F
CHICAGO-MIDWAY PTSUNNY   48  25  40 S16G29    30.25F
MOLINE         FAIR      55  26  32 S23G32    30.08F
ROCKFORD       CLOUDY    49  28  44 S29G37    30.18F
STERLING       FAIR      52  30  43 SE17G25   30.14F
PEORIA         FAIR      53  28  38 S20G32    30.16F
$$

NOTE: "FAIR" INDICATES FEW OR NO CLOUDS BELOW 12,000 FEET WITH NO
SIGNIFICANT WEATHER AND/OR OBSTRUCTIONS TO VISIBILITY. WIND
SPEEDS ARE IN MILES-PER-HOUR.



USA.gov is the U.S. government's official web portal to all federal, state and local government web resources and services.